User: anonymous   Login
Location: Unspecified
(0.0000°N, 0.0000°E)
Time: 13:16:00
(UTC+01:00)
Language:

ATLAS 2AS CENTAUR R/B - Orbit

View from above orbital plane
View from above orbital plane
View from above satellite
View from above satellite

Ground track
Ground track

The orbit data is extracted from the following two-line orbital elements,

1 28096U 03054B   16335.77516949 0.00000010  00000-0  14672-4 0    01
2 28096  63.6725 199.2920 0267715 270.1414  89.8586 13.40818198    02
Epoch (UTC): 30 November 2016 18:36:14
Eccentricity: 0.0267715
inclination: 63.6725°
perigee height: 906 km
apogee height: 1306 km
right ascension of ascending node: 199.2920°
argument of perigee: 270.1414°
revolutions per day: 13.40818198
mean anomaly at epoch: 89.8586°
orbit number at epoch: 0

The dashed part of the orbit path shows where the satellite is in the earth's shadow,  

DLR